^^
Station Historical Data
 
Daily Summary for February 21, 2018 Units:  Metric    English   Both
« Previous Day
Next Day »
Daily Weekly Monthly Yearly Custom
  Current: High: Low: Average:
Temperature: -16.9 °C -17.8 °C -18 °C -17.8 °C
Dew Point: -18.3 °C -17.8 °C -21.6 °C -19.9 °C
Humidity: 84% Humidity% 61% 75%
Wind Speed: 0km/h 0km/h 0km/h 0km/h
Wind Gust: 0km/h 0km/h - -
WindCalm - -
Pressure: 35095.9 hPa 0 hPa 35058.6 hPa -
Precipitation: 0 mm      
Historical Graphs
 
 
Tabular Data for February 21, 2018
Time Temperature Dew Point Pressure Wind Wind Speed Wind Gust Humidity Rainfall Rate (Hourly) solar Conditions
-17.8 °C -17.8 °C 0 hPa Calm     Humidity% 0 mm SolarRadiationWatts/m^2 W/m2 Conditions
00:01 -17.8 °C -21.5 °C 35163.6 hPa Calm     61% 0 mm 0.0 W/m2 CLR
00:06 -17.9 °C -21.6 °C 35163.6 hPa Calm     61% 0 mm 0.0 W/m2 CLR
00:11 -17.9 °C -21.5 °C 35129.8 hPa Calm     62% 0 mm 0.0 W/m2 CLR
00:16 -17.9 °C -21.4 °C 35129.8 hPa Calm     62% 0 mm 0.0 W/m2 CLR
00:21 -17.9 °C -21.3 °C 35129.8 hPa Calm     63% 0 mm 0.0 W/m2 CLR
00:26 -17.9 °C -21.3 °C 35095.9 hPa Calm     63% 0 mm 0.0 W/m2 CLR
00:31 -17.9 °C -21.3 °C 35095.9 hPa Calm     63% 0 mm 0.0 W/m2 CLR
00:36 -17.9 °C -21.2 °C 35095.9 hPa Calm     64% 0 mm 0.0 W/m2 CLR
00:41 -17.9 °C -21.2 °C 35095.9 hPa Calm     64% 0 mm 0.0 W/m2 CLR
00:46 -17.9 °C -21.2 °C 35129.8 hPa Calm     64% 0 mm 0.0 W/m2 CLR
00:51 -17.9 °C -21.1 °C 35129.8 hPa Calm     65% 0 mm 0.0 W/m2 CLR
00:56 -17.9 °C -21.1 °C 35095.9 hPa Calm     65% 0 mm 0.0 W/m2 CLR
01:01 -17.9 °C -21 °C 35095.9 hPa Calm     66% 0 mm 0.0 W/m2 CLR
01:06 -17.9 °C -21 °C 35095.9 hPa Calm     66% 0 mm 0.0 W/m2 CLR
01:11 -17.9 °C -21 °C 35129.8 hPa Calm     66% 0 mm 0.0 W/m2 CLR
01:16 -17.9 °C -21 °C 35129.8 hPa Calm     66% 0 mm 0.0 W/m2 CLR
01:21 -17.9 °C -20.9 °C 35129.8 hPa Calm     67% 0 mm 0.0 W/m2 CLR
01:26 -17.9 °C -20.9 °C 35095.9 hPa Calm     67% 0 mm 0.0 W/m2 CLR
01:31 -17.8 °C -20.8 °C 35095.9 hPa Calm     67% 0 mm 0.0 W/m2 CLR
01:36 -17.8 °C -20.8 °C 35095.9 hPa Calm     67% 0 mm 0.0 W/m2 CLR
01:41 -17.8 °C -20.7 °C 35095.9 hPa Calm     68% 0 mm 0.0 W/m2 CLR
01:46 -17.8 °C -20.7 °C 35163.6 hPa Calm     68% 0 mm 0.0 W/m2 CLR
01:51 -17.8 °C -20.7 °C 35163.6 hPa Calm     68% 0 mm 0.0 W/m2 CLR
01:56 -17.8 °C -20.7 °C 35163.6 hPa Calm     68% 0 mm 0.0 W/m2 CLR
02:01 -17.8 °C -20.7 °C 35129.8 hPa Calm     68% 0 mm 0.0 W/m2 CLR
02:06 -17.8 °C -20.6 °C 35129.8 hPa Calm     69% 0 mm 0.0 W/m2 CLR
02:11 -17.8 °C -20.6 °C 35129.8 hPa Calm     69% 0 mm 0.0 W/m2 CLR
02:16 -17.8 °C -20.6 °C 35095.9 hPa Calm     69% 0 mm 0.0 W/m2 CLR
02:21 -17.8 °C -20.6 °C 35095.9 hPa Calm     69% 0 mm 0.0 W/m2 CLR
02:26 -17.8 °C -20.4 °C 35095.9 hPa Calm     70% 0 mm 0.0 W/m2 CLR
02:31 -17.8 °C -20.4 °C 35129.8 hPa Calm     70% 0 mm 0.0 W/m2 CLR
02:36 -17.8 °C -20.4 °C 35129.8 hPa Calm     70% 0 mm 0.0 W/m2 CLR
02:41 -17.8 °C -20.4 °C 35129.8 hPa Calm     70% 0 mm 0.0 W/m2 CLR
02:46 -17.8 °C -20.4 °C 35129.8 hPa Calm     70% 0 mm 0.0 W/m2 CLR
02:51 -17.8 °C -20.3 °C 35129.8 hPa Calm     71% 0 mm 0.0 W/m2 CLR
02:56 -17.8 °C -20.3 °C 35129.8 hPa Calm     71% 0 mm 0.0 W/m2 CLR
03:01 -17.8 °C -20.3 °C 35129.8 hPa Calm     71% 0 mm 0.0 W/m2 CLR
03:06 -17.8 °C -20.3 °C 35129.8 hPa Calm     71% 0 mm 0.0 W/m2 CLR
03:11 -17.8 °C -20.3 °C 35129.8 hPa Calm     71% 0 mm 0.0 W/m2 CLR
03:16 -17.8 °C -20.2 °C 35129.8 hPa Calm     72% 0 mm 0.0 W/m2 CLR
03:21 -17.8 °C -20.3 °C 35129.8 hPa Calm     71% 0 mm 0.0 W/m2 CLR
03:26 -17.8 °C -20.3 °C 35129.8 hPa Calm     72% 0 mm 0.0 W/m2 CLR
03:31 -17.8 °C -20.3 °C 35129.8 hPa Calm     72% 0 mm 0.0 W/m2 CLR
03:36 -17.8 °C -20.3 °C 35129.8 hPa Calm     72% 0 mm 0.0 W/m2 CLR
03:41 -17.9 °C -20.2 °C 35129.8 hPa Calm     73% 0 mm 0.0 W/m2 CLR
03:46 -17.9 °C -20.2 °C 35129.8 hPa Calm     73% 0 mm 0.0 W/m2 CLR
03:51 -17.9 °C -20.2 °C 35129.8 hPa Calm     73% 0 mm 0.0 W/m2 CLR
03:56 -17.9 °C -20.2 °C 35129.8 hPa Calm     74% 0 mm 0.0 W/m2 CLR
04:01 -17.9 °C -20.2 °C 35095.9 hPa Calm     74% 0 mm 0.0 W/m2 CLR
04:06 -17.9 °C -20.2 °C 35095.9 hPa Calm     74% 0 mm 0.0 W/m2 CLR
04:11 -17.9 °C -20.2 °C 35095.9 hPa Calm     74% 0 mm 0.0 W/m2 CLR
04:16 -17.9 °C -20.1 °C 35095.9 hPa Calm     75% 0 mm 0.0 W/m2 CLR
04:21 -17.9 °C -20.1 °C 35095.9 hPa Calm     75% 0 mm 0.0 W/m2 CLR
04:26 -17.9 °C -20.1 °C 35095.9 hPa Calm     75% 0 mm 0.0 W/m2 CLR
04:31 -17.9 °C -20.1 °C 35095.9 hPa Calm     75% 0 mm 0.0 W/m2 CLR
04:36 -18 °C -20.1 °C 35095.9 hPa Calm     76% 0 mm 0.0 W/m2 CLR
04:41 -17.9 °C -20 °C 35095.9 hPa Calm     76% 0 mm 0.0 W/m2 CLR
04:46 -18 °C -20.1 °C 35095.9 hPa Calm     76% 0 mm 0.0 W/m2 CLR
04:51 -18 °C -19.9 °C 35095.9 hPa Calm     77% 0 mm 0.0 W/m2 CLR
04:56 -18 °C -19.9 °C 35095.9 hPa Calm     77% 0 mm 0.0 W/m2 CLR
05:01 -18 °C -19.9 °C 35095.9 hPa Calm     77% 0 mm 0.0 W/m2 CLR
05:06 -18 °C -19.9 °C 35095.9 hPa Calm     77% 0 mm 0.0 W/m2 CLR
05:11 -17.9 °C -19.9 °C 35095.9 hPa Calm     77% 0 mm 0.0 W/m2 CLR
05:16 -17.9 °C -19.9 °C 35095.9 hPa Calm     77% 0 mm 0.0 W/m2 CLR
05:21 -17.9 °C -19.9 °C 35095.9 hPa Calm     77% 0 mm 0.0 W/m2 CLR
05:26 -17.9 °C -19.9 °C 35095.9 hPa Calm     77% 0 mm 0.0 W/m2 CLR
05:31 -17.9 °C -19.8 °C 35095.9 hPa Calm     78% 0 mm 0.0 W/m2 CLR
05:36 -17.9 °C -19.8 °C 35095.9 hPa Calm     78% 0 mm 0.0 W/m2 CLR
05:41 -17.9 °C -19.8 °C 35095.9 hPa Calm     78% 0 mm 0.0 W/m2 CLR
05:46 -17.9 °C -19.8 °C 35058.6 hPa Calm     78% 0 mm 0.0 W/m2 CLR
05:51 -17.9 °C -19.8 °C 35058.6 hPa Calm     78% 0 mm 0.0 W/m2 CLR
05:56 -17.9 °C -19.8 °C 35058.6 hPa Calm     78% 0 mm 0.0 W/m2 CLR
06:01 -17.9 °C -19.8 °C 35095.9 hPa Calm     78% 0 mm 0.0 W/m2 CLR
06:06 -17.9 °C -19.8 °C 35095.9 hPa Calm     78% 0 mm 0.0 W/m2 CLR
06:11 -17.8 °C -19.6 °C 35095.9 hPa Calm     79% 0 mm 0.0 W/m2 CLR
06:16 -17.8 °C -19.6 °C 35058.6 hPa Calm     79% 0 mm 0.0 W/m2 CLR
06:21 -17.8 °C -19.6 °C 35058.6 hPa Calm     79% 0 mm 0.0 W/m2 CLR
06:26 -17.9 °C -19.7 °C 35095.9 hPa Calm     79% 0 mm 0.0 W/m2 CLR
06:31 -17.9 °C -19.7 °C 35095.9 hPa Calm     79% 0 mm 0.0 W/m2 CLR
06:36 -17.9 °C -19.7 °C 35095.9 hPa Calm     79% 0 mm 0.0 W/m2 CLR
06:41 -18 °C -19.8 °C 35095.9 hPa Calm     79% 0 mm 0.0 W/m2 CLR
06:46 -17.9 °C -19.7 °C 35058.6 hPa Calm     79% 0 mm 0.0 W/m2 CLR
06:51 -17.9 °C -19.7 °C 35058.6 hPa Calm     79% 0 mm 0.0 W/m2 CLR
06:56 -17.9 °C -19.6 °C 35058.6 hPa Calm     80% 0 mm 0.0 W/m2 CLR
07:01 -17.9 °C -19.6 °C 35058.6 hPa Calm     80% 0 mm 0.0 W/m2 CLR
07:06 -17.9 °C -19.5 °C 35058.6 hPa Calm     81% 0 mm 0.0 W/m2 CLR
07:11 -17.9 °C -19.5 °C 35058.6 hPa Calm     81% 0 mm 0.0 W/m2 CLR
07:16 -17.9 °C -19.5 °C 35058.6 hPa Calm     81% 0 mm 0.0 W/m2 CLR
07:21 -17.9 °C -19.5 °C 35058.6 hPa Calm     81% 0 mm 0.0 W/m2 CLR
07:26 -17.9 °C -19.5 °C 35095.9 hPa Calm     81% 0 mm 0.0 W/m2 CLR
07:31 -17.9 °C -19.4 °C 35095.9 hPa Calm     82% 0 mm 0.0 W/m2 CLR
07:36 -17.9 °C -19.4 °C 35095.9 hPa Calm     82% 0 mm 0.0 W/m2 CLR
07:41 -17.9 °C -19.4 °C 35095.9 hPa Calm     82% 0 mm 0.0 W/m2 CLR
07:46 -17.9 °C -19.4 °C 35095.9 hPa Calm     82% 0 mm 0.0 W/m2 CLR
07:51 -17.8 °C -19.3 °C 35095.9 hPa Calm     82% 0 mm 0.0 W/m2 CLR
07:56 -17.8 °C -19.3 °C 35095.9 hPa Calm     82% 0 mm 0.0 W/m2 CLR
08:01 -17.8 °C -19.2 °C 35095.9 hPa Calm     83% 0 mm 0.0 W/m2 CLR
08:06 -17.8 °C -19.2 °C 35095.9 hPa Calm     83% 0 mm 0.0 W/m2 CLR
08:11 -17.8 °C -19.2 °C 35095.9 hPa Calm     83% 0 mm 0.0 W/m2 CLR
08:16 -17.8 °C -19.2 °C 35095.9 hPa Calm     83% 0 mm 0.0 W/m2 CLR
08:21 -17.7 °C -19.1 °C 35095.9 hPa Calm     83% 0 mm 0.0 W/m2 CLR
08:26 -17.7 °C -19.1 °C 35095.9 hPa Calm     83% 0 mm 0.0 W/m2 CLR
08:31 -17.7 °C -19.1 °C 35095.9 hPa Calm     83% 0 mm 0.0 W/m2 CLR
08:36 -17.7 °C -19 °C 35095.9 hPa Calm     84% 0 mm 0.0 W/m2 CLR
08:41 -17.6 °C -19 °C 35095.9 hPa Calm     83% 0 mm 0.0 W/m2 CLR
08:46 -17.6 °C -18.9 °C 35095.9 hPa Calm     84% 0 mm 0.0 W/m2 CLR
08:51 -17.6 °C -18.9 °C 35095.9 hPa Calm     84% 0 mm 0.0 W/m2 CLR
08:56 -17.6 °C -18.9 °C 35058.6 hPa Calm     84% 0 mm 0.0 W/m2 CLR
09:01 -17.6 °C -18.9 °C 35058.6 hPa Calm     84% 0 mm 0.0 W/m2 CLR
09:06 -17.6 °C -18.9 °C 35058.6 hPa Calm     84% 0 mm 0.0 W/m2 CLR
09:11 -17.6 °C -18.9 °C 35095.9 hPa Calm     84% 0 mm 0.0 W/m2 CLR
09:16 -17.6 °C -18.9 °C 35095.9 hPa Calm     84% 0 mm 0.0 W/m2 CLR
09:21 -17.6 °C -18.9 °C 35095.9 hPa Calm     84% 0 mm 0.0 W/m2 CLR
09:26 -17.4 °C -18.7 °C 35058.6 hPa Calm     84% 0 mm 0.0 W/m2 CLR
09:31 -17.4 °C -18.7 °C 35058.6 hPa Calm     84% 0 mm 0.0 W/m2 CLR
09:36 -17.3 °C -18.5 °C 35058.6 hPa Calm     85% 0 mm 0.0 W/m2 CLR
09:41 -17.2 °C -18.4 °C 35095.9 hPa Calm     85% 0 mm 0.0 W/m2 CLR
09:46 -17.1 °C -18.3 °C 35095.9 hPa Calm     85% 0 mm 0.0 W/m2 CLR
09:51 -17 °C -18.2 °C 35095.9 hPa Calm     85% 0 mm 0.0 W/m2 CLR
09:56 -17.1 °C -18.3 °C 35095.9 hPa Calm     85% 0 mm 0.0 W/m2 CLR
10:01 -16.9 °C -18.3 °C 35095.9 hPa Calm     84% 0 mm 0.0 W/m2 CLR
Bakkaano Camping, Sokndal
Compliments of Weather Underground - 2 mb